Location: Blairvadach
(56.2780°N, 6.9720°W)
Time: 12:45:45
(UTC+00:00)

Envisat - Pass Details

Date: 16 November 2019
Orbit: 764 x 766 km, 98.1° (Epoch: 14 December)

Event Time Altitude Azimuth Distance (km) Brightness Sun altitude
Rises 06:07:48 0° 23° (NNE) 3,247 6.4 -16.1°
Reaches altitude 10° 06:10:46 10° 41° (NE) 2,315 5.9 -15.7°
Maximum altitude 06:14:24 19° 87° (E) 1,750 5.9 -15.2°
Drops below altitude 10° 06:18:01 10° 132° (SE) 2,302 6.4 -14.7°
Sets 06:20:57 0° 150° (SSE) 3,223 6.9 -14.3°
